User: anonymous
Location: Caltech
(34.1382°N, 118.1253°W)
Time: 02:08:21
(UTC-07:00)
Language:

Spot 4 Rocket - Orbit

View from above orbital plane
View from above orbital plane
View from above satellite
View from above satellite

Ground track
Ground track

The orbit data is extracted from the following two-line orbital elements,

1 25261U 98017B   14243.79873547  .00000200  00000-0  88783-4 0  6600
2 25261 098.4145 195.4987 0002522 215.7632 199.7219 14.32973465858844
Epoch (UTC): 31 August 2014 19:10:10
Eccentricity: 0.0002522
inclination: 98.4145°
perigee height: 780 km
apogee height: 783 km
right ascension of ascending node: 195.4987°
argument of perigee: 215.7632°
revolutions per day: 14.32973465
mean anomaly at epoch: 199.7219°
orbit number at epoch: 85884

The dashed part of the orbit path shows where the satellite is in the earth's shadow,  

DLR